{"data":{"norad_id":45164,"intl_designator":"2020-008AK","name":"ONEWEB-0065","alt_names":[],"object_type":"PAYLOAD","status":"ACTIVE","operator":null,"country":"UK","launch_date":"2020-02-06","launch_site_code":"TYMSC","launch_vehicle":null,"mission":null,"orbit_class":"UNKNOWN","rcs_meters":null,"size_class":null,"mass_kg":null,"dimensions":null,"purposes":["comms"],"wikipedia_slug":null,"has_3d_model":false,"image_url":null,"decayed_at":null,"tle_current":{"epoch":"2026-05-25T03:03:08.732160Z","epoch_age_seconds":64166,"freshness":"FRESH","line1":"1 45164U 20008AK  26145.12718440 -.00000581  00000+0 -17012-2 0  9993","line2":"2 45164  87.8861  40.8628 0002114  87.0563 273.0806 13.10374718304867","mean_motion":13.10374718,"eccentricity":0.0002114,"inclination_deg":87.8861,"raan_deg":40.8628,"arg_perigee_deg":87.0563,"mean_anomaly_deg":273.0806,"bstar":-0.0017012,"rev_number":30486,"period_min":109.89223007888,"perigee_km":1220.1031929374,"apogee_km":1223.3164081646,"semimajor_km":7599.846800551,"source":"CELESTRAK","updated_at":"2026-05-25T13:38:22.340384Z"}}}